Year,Month,Day,Hour,Minute,Value (Times are PST for temperature in C)
2015,04,03,00,00,7.20
2015,04,03,00,01,7.20
2015,04,03,00,02,7.20
2015,04,03,00,03,7.20
2015,04,03,00,04,7.20
2015,04,03,00,05,7.20
2015,04,03,00,06,7.20
2015,04,03,00,07,7.20
2015,04,03,00,08,7.20
2015,04,03,00,09,7.20
2015,04,03,00,10,7.20
2015,04,03,00,11,7.20
2015,04,03,00,12,7.20
2015,04,03,00,13,7.20
2015,04,03,00,14,7.20
2015,04,03,00,15,7.20
2015,04,03,00,16,7.20
2015,04,03,00,17,7.10
2015,04,03,00,18,7.10
2015,04,03,00,19,7.10
2015,04,03,00,20,7.10
2015,04,03,00,21,7.10
2015,04,03,00,22,7.10
2015,04,03,00,23,7.10
2015,04,03,00,24,7.10
2015,04,03,00,25,7.10
2015,04,03,00,26,7.10
2015,04,03,00,27,7.10
2015,04,03,00,28,7.10
2015,04,03,00,29,7.00
2015,04,03,00,30,7.00
2015,04,03,00,31,7.00
2015,04,03,00,32,7.00
2015,04,03,00,33,7.00
2015,04,03,00,34,7.00
2015,04,03,00,35,7.00
2015,04,03,00,36,7.00
2015,04,03,00,37,7.00
2015,04,03,00,38,7.00
2015,04,03,00,39,7.00
2015,04,03,00,40,7.00
2015,04,03,00,41,7.00
2015,04,03,00,42,7.00
2015,04,03,00,43,7.00
2015,04,03,00,44,7.00
2015,04,03,00,45,7.00
2015,04,03,00,46,7.00
2015,04,03,00,47,7.00
2015,04,03,00,48,7.00
2015,04,03,00,49,6.90
2015,04,03,00,50,6.90
2015,04,03,00,51,6.90
2015,04,03,00,52,6.90
2015,04,03,00,53,7.00
2015,04,03,00,54,7.00
2015,04,03,00,55,6.90
2015,04,03,00,56,6.90
2015,04,03,00,57,7.00
2015,04,03,00,58,7.00
2015,04,03,00,59,7.00
2015,04,03,01,00,7.00
2015,04,03,01,01,7.00
2015,04,03,01,02,7.00
2015,04,03,01,03,7.00
2015,04,03,01,04,7.00
2015,04,03,01,05,7.00
2015,04,03,01,06,7.00
2015,04,03,01,07,7.00
2015,04,03,01,08,7.00
2015,04,03,01,09,7.00
2015,04,03,01,10,7.00
2015,04,03,01,11,7.00
2015,04,03,01,12,7.00
2015,04,03,01,13,7.00
2015,04,03,01,14,7.00
2015,04,03,01,15,7.00
2015,04,03,01,16,7.00
2015,04,03,01,17,7.00
2015,04,03,01,18,7.00
2015,04,03,01,19,7.00
2015,04,03,01,20,7.00
2015,04,03,01,21,6.90
2015,04,03,01,22,7.00
2015,04,03,01,23,7.00
2015,04,03,01,24,6.90
2015,04,03,01,25,7.00
2015,04,03,01,26,7.00
2015,04,03,01,27,6.90
2015,04,03,01,28,6.90
2015,04,03,01,29,6.90
2015,04,03,01,30,6.90
2015,04,03,01,31,6.90
2015,04,03,01,32,6.90
2015,04,03,01,33,6.90
2015,04,03,01,34,6.90
2015,04,03,01,35,6.90
2015,04,03,01,36,6.90
2015,04,03,01,37,6.90
2015,04,03,01,38,6.90
2015,04,03,01,39,6.90
2015,04,03,01,40,6.90
2015,04,03,01,41,6.90
2015,04,03,01,42,6.90
2015,04,03,01,43,6.90
2015,04,03,01,44,6.90
2015,04,03,01,45,6.90
2015,04,03,01,46,6.80
2015,04,03,01,47,6.80
2015,04,03,01,48,6.80
2015,04,03,01,49,6.80
2015,04,03,01,50,6.80
2015,04,03,01,51,6.80
2015,04,03,01,52,6.80
2015,04,03,01,53,6.80
2015,04,03,01,54,6.80
2015,04,03,01,55,6.80
2015,04,03,01,56,6.80
2015,04,03,01,57,6.80
2015,04,03,01,58,6.80
2015,04,03,01,59,6.70
2015,04,03,02,00,6.70
2015,04,03,02,01,6.70
2015,04,03,02,02,6.70
2015,04,03,02,03,6.70
2015,04,03,02,04,6.70
2015,04,03,02,05,6.70
2015,04,03,02,06,6.70
2015,04,03,02,07,6.70
2015,04,03,02,08,6.70
2015,04,03,02,09,6.70
2015,04,03,02,10,6.70
2015,04,03,02,11,6.70
2015,04,03,02,12,6.70
2015,04,03,02,13,6.60
2015,04,03,02,14,6.60
2015,04,03,02,15,6.60
2015,04,03,02,16,6.60
2015,04,03,02,17,6.60
2015,04,03,02,18,6.60
2015,04,03,02,19,6.60
2015,04,03,02,20,6.60
2015,04,03,02,21,6.60
2015,04,03,02,22,6.50
2015,04,03,02,23,6.50
2015,04,03,02,24,6.50
2015,04,03,02,25,6.50
2015,04,03,02,26,6.50
2015,04,03,02,27,6.50
2015,04,03,02,28,6.40
2015,04,03,02,29,6.40
2015,04,03,02,30,6.40
2015,04,03,02,31,6.40
2015,04,03,02,32,6.40
2015,04,03,02,33,6.40
2015,04,03,02,34,6.40
2015,04,03,02,35,6.40
2015,04,03,02,36,6.40
2015,04,03,02,37,6.30
2015,04,03,02,38,6.30
2015,04,03,02,39,6.30
2015,04,03,02,40,6.30
2015,04,03,02,41,6.30
2015,04,03,02,42,6.30
2015,04,03,02,43,6.30
2015,04,03,02,44,6.30
2015,04,03,02,45,6.30
2015,04,03,02,46,6.30
2015,04,03,02,47,6.30
2015,04,03,02,48,6.20
2015,04,03,02,49,6.20
2015,04,03,02,50,6.20
2015,04,03,02,51,6.20
2015,04,03,02,52,6.20
2015,04,03,02,53,6.20
2015,04,03,02,54,6.20
2015,04,03,02,55,6.20
2015,04,03,02,56,6.20
2015,04,03,02,57,6.20
2015,04,03,02,58,6.20
2015,04,03,02,59,6.10
2015,04,03,03,00,6.10
2015,04,03,03,01,6.10
2015,04,03,03,02,6.10
2015,04,03,03,03,6.10
2015,04,03,03,04,6.10
2015,04,03,03,05,6.10
2015,04,03,03,06,6.10
2015,04,03,03,07,6.10
2015,04,03,03,08,6.10
2015,04,03,03,09,6.10
2015,04,03,03,10,6.10
2015,04,03,03,11,6.10
2015,04,03,03,12,6.10
2015,04,03,03,13,6.10
2015,04,03,03,14,6.10
2015,04,03,03,15,6.00
2015,04,03,03,16,6.00
2015,04,03,03,17,6.00
2015,04,03,03,18,6.00
2015,04,03,03,19,6.00
2015,04,03,03,20,6.00
2015,04,03,03,21,6.00
2015,04,03,03,22,6.00
2015,04,03,03,23,5.90
2015,04,03,03,24,6.00
2015,04,03,03,25,5.90
2015,04,03,03,26,5.90
2015,04,03,03,27,5.90
2015,04,03,03,28,5.90
2015,04,03,03,29,5.90
2015,04,03,03,30,5.90
2015,04,03,03,31,5.90
2015,04,03,03,32,5.90
2015,04,03,03,33,5.90
2015,04,03,03,34,5.90
2015,04,03,03,35,5.90
2015,04,03,03,36,5.90
2015,04,03,03,37,5.90
2015,04,03,03,38,5.90
2015,04,03,03,39,5.90
2015,04,03,03,40,5.90
2015,04,03,03,41,5.90
2015,04,03,03,42,5.90
2015,04,03,03,43,5.90
2015,04,03,03,44,5.90
2015,04,03,03,49,5.80
2015,04,03,03,50,5.80
2015,04,03,03,51,5.80
2015,04,03,03,52,5.80
2015,04,03,03,53,5.80
2015,04,03,03,54,5.80
2015,04,03,03,55,5.80
2015,04,03,03,56,5.80
2015,04,03,03,57,5.80
2015,04,03,03,58,5.80
2015,04,03,03,59,5.70
2015,04,03,04,00,5.70
2015,04,03,04,01,5.70
2015,04,03,04,02,5.70
2015,04,03,04,03,5.70
2015,04,03,04,04,5.70
2015,04,03,04,05,5.70
2015,04,03,04,06,5.70
2015,04,03,04,07,5.60
2015,04,03,04,08,5.60
2015,04,03,04,09,5.60
2015,04,03,04,10,5.60
2015,04,03,04,11,5.60
2015,04,03,04,12,5.60
2015,04,03,04,13,5.50
2015,04,03,04,14,5.50
2015,04,03,04,15,5.50
2015,04,03,04,16,5.40
2015,04,03,04,17,5.40
2015,04,03,04,18,5.40
2015,04,03,04,19,5.40
2015,04,03,04,20,5.30
2015,04,03,04,21,5.30
2015,04,03,04,22,5.30
2015,04,03,04,23,5.30
2015,04,03,04,24,5.30
2015,04,03,04,25,5.30
2015,04,03,04,26,5.30
2015,04,03,04,27,5.20
2015,04,03,04,28,5.20
2015,04,03,04,29,5.20
2015,04,03,04,30,5.20
2015,04,03,04,31,5.20
2015,04,03,04,32,5.10
2015,04,03,04,33,5.10
2015,04,03,04,34,5.10
2015,04,03,04,35,5.10
2015,04,03,04,36,5.10
2015,04,03,04,37,5.10
2015,04,03,04,38,5.10
2015,04,03,04,39,5.10
2015,04,03,04,40,5.00
2015,04,03,04,41,5.00
2015,04,03,04,42,5.00
2015,04,03,04,43,4.90
2015,04,03,04,44,4.90
2015,04,03,04,45,4.90
2015,04,03,04,46,4.90
2015,04,03,04,47,4.90
2015,04,03,04,48,4.80
2015,04,03,04,49,4.80
2015,04,03,04,50,4.80
2015,04,03,04,51,4.80
2015,04,03,04,52,4.80
2015,04,03,04,53,4.80
2015,04,03,04,54,4.80
2015,04,03,04,55,4.80
2015,04,03,04,56,4.70
2015,04,03,04,57,4.70
2015,04,03,04,58,4.70
2015,04,03,04,59,4.70
2015,04,03,05,00,4.70
2015,04,03,05,01,4.60
2015,04,03,05,02,4.60
2015,04,03,05,03,4.60
2015,04,03,05,04,4.60
2015,04,03,05,05,4.60
2015,04,03,05,06,4.50
2015,04,03,05,07,4.50
2015,04,03,05,08,4.50
2015,04,03,05,09,4.50
2015,04,03,05,10,4.40
2015,04,03,05,11,4.40
2015,04,03,05,12,4.40
2015,04,03,05,13,4.40
2015,04,03,05,14,4.30
2015,04,03,05,15,4.30
2015,04,03,05,16,4.30
2015,04,03,05,17,4.30
2015,04,03,05,18,4.30
2015,04,03,05,19,4.30
2015,04,03,05,20,4.20
2015,04,03,05,21,4.20
2015,04,03,05,22,4.20
2015,04,03,05,23,4.20
2015,04,03,05,24,4.20
2015,04,03,05,25,4.20
2015,04,03,05,26,4.20
2015,04,03,05,27,4.20
2015,04,03,05,28,4.20
2015,04,03,05,29,4.20
2015,04,03,05,30,4.20
2015,04,03,05,31,4.10
2015,04,03,05,32,4.10
2015,04,03,05,33,4.10
2015,04,03,05,34,4.10
2015,04,03,05,35,4.10
2015,04,03,05,36,4.10
2015,04,03,05,37,4.10
2015,04,03,05,38,4.10
2015,04,03,05,39,4.10
2015,04,03,05,40,4.10
2015,04,03,05,41,4.10
2015,04,03,05,42,4.10
2015,04,03,05,43,4.10
2015,04,03,05,44,4.00
2015,04,03,05,45,4.00
2015,04,03,05,46,4.00
2015,04,03,05,47,4.00
2015,04,03,05,48,4.00
2015,04,03,05,49,4.00
2015,04,03,05,50,4.00
2015,04,03,05,51,4.00
2015,04,03,05,52,4.00
2015,04,03,05,53,4.00
2015,04,03,05,54,4.00
2015,04,03,05,55,4.00
2015,04,03,05,56,4.00
2015,04,03,05,57,4.00
2015,04,03,05,58,3.90
2015,04,03,05,59,3.90
2015,04,03,06,00,3.90
2015,04,03,06,01,3.90
2015,04,03,06,02,3.90
2015,04,03,06,03,3.90
2015,04,03,06,04,3.90
2015,04,03,06,05,3.90
2015,04,03,06,06,3.90
2015,04,03,06,07,3.90
2015,04,03,06,08,3.90
2015,04,03,06,09,3.90
2015,04,03,06,10,3.90
2015,04,03,06,11,3.80
2015,04,03,06,12,3.80
2015,04,03,06,13,3.80
2015,04,03,06,14,3.80
2015,04,03,06,15,3.80
2015,04,03,06,16,3.80
2015,04,03,06,17,3.80
2015,04,03,06,18,3.80
2015,04,03,06,19,3.80
2015,04,03,06,20,3.80
2015,04,03,06,21,3.80
2015,04,03,06,22,3.80
2015,04,03,06,23,3.80
2015,04,03,06,24,3.80
2015,04,03,06,25,3.80
2015,04,03,06,26,3.80
2015,04,03,06,27,3.80
2015,04,03,06,28,3.80
2015,04,03,06,29,3.80
2015,04,03,06,30,3.80
2015,04,03,06,31,3.80
2015,04,03,06,32,3.80
2015,04,03,06,33,3.80
2015,04,03,06,34,3.80
2015,04,03,06,35,3.80
2015,04,03,06,36,3.80
2015,04,03,06,37,3.80
2015,04,03,06,38,3.90
2015,04,03,06,39,3.90
2015,04,03,06,40,3.80
2015,04,03,06,41,3.80
2015,04,03,06,42,3.80
2015,04,03,06,43,3.80
2015,04,03,06,44,3.80
2015,04,03,06,45,3.80
2015,04,03,06,46,3.80
2015,04,03,06,47,3.80
2015,04,03,06,48,3.80
2015,04,03,06,49,3.80
2015,04,03,06,50,3.80
2015,04,03,06,51,3.80
2015,04,03,06,52,3.80
2015,04,03,06,53,3.80
2015,04,03,06,54,3.80
2015,04,03,06,55,3.80
2015,04,03,06,56,3.80
2015,04,03,06,57,3.80
2015,04,03,06,58,3.80
2015,04,03,06,59,3.90
2015,04,03,07,00,3.90
2015,04,03,07,01,3.90
2015,04,03,07,02,3.90
2015,04,03,07,03,3.90
2015,04,03,07,04,3.90
2015,04,03,07,05,3.90
2015,04,03,07,06,3.90
2015,04,03,07,07,3.90
2015,04,03,07,08,3.90
2015,04,03,07,09,4.00
2015,04,03,07,10,4.00
2015,04,03,07,11,4.00
2015,04,03,07,12,4.00
2015,04,03,07,13,4.00
2015,04,03,07,14,4.00
2015,04,03,07,15,4.00
2015,04,03,07,16,4.10
2015,04,03,07,17,4.10
2015,04,03,07,18,4.10
2015,04,03,07,19,4.10
2015,04,03,07,20,4.10
2015,04,03,07,21,4.10
2015,04,03,07,22,4.10
2015,04,03,07,23,4.20
2015,04,03,07,24,4.20
2015,04,03,07,25,4.20
2015,04,03,07,26,4.20
2015,04,03,07,27,4.20
2015,04,03,07,28,4.20
2015,04,03,07,29,4.20
2015,04,03,07,30,4.30
2015,04,03,07,31,4.30
2015,04,03,07,32,4.30
2015,04,03,07,33,4.30
2015,04,03,07,34,4.30
2015,04,03,07,35,4.40
2015,04,03,07,36,4.40
2015,04,03,07,37,4.40
2015,04,03,07,38,4.40
2015,04,03,07,39,4.50
2015,04,03,07,40,4.50
2015,04,03,07,41,4.50
2015,04,03,07,42,4.50
2015,04,03,07,43,4.60
2015,04,03,07,44,4.60
2015,04,03,07,45,4.60
2015,04,03,07,46,4.60
2015,04,03,07,47,4.70
2015,04,03,07,48,4.70
2015,04,03,07,49,4.70
2015,04,03,07,50,4.70
2015,04,03,07,51,4.70
2015,04,03,07,52,4.80
2015,04,03,07,53,4.80
2015,04,03,07,54,4.80
2015,04,03,07,55,4.80
2015,04,03,07,56,4.90
2015,04,03,07,57,4.90
2015,04,03,07,58,4.90
2015,04,03,07,59,5.00
2015,04,03,08,00,5.00
2015,04,03,08,01,5.10
2015,04,03,08,02,5.10
2015,04,03,08,03,5.20
2015,04,03,08,04,5.20
2015,04,03,08,05,5.30
2015,04,03,08,06,5.30
2015,04,03,08,07,5.30
2015,04,03,08,08,5.40
2015,04,03,08,09,5.40
2015,04,03,08,10,5.40
2015,04,03,08,11,5.50
2015,04,03,08,12,5.50
2015,04,03,08,13,5.50
2015,04,03,08,14,5.60
2015,04,03,08,15,5.60
2015,04,03,08,16,5.60
2015,04,03,08,17,5.60
2015,04,03,08,18,5.70
2015,04,03,08,19,5.70
2015,04,03,08,20,5.70
2015,04,03,08,21,5.70
2015,04,03,08,22,5.70
2015,04,03,08,23,5.70
2015,04,03,08,24,5.70
2015,04,03,08,25,5.80
2015,04,03,08,26,5.80
2015,04,03,08,27,5.80
2015,04,03,08,28,5.80
2015,04,03,08,29,5.80
2015,04,03,08,30,5.80
2015,04,03,08,31,5.80
2015,04,03,08,32,5.80
2015,04,03,08,33,5.90
2015,04,03,08,34,5.90
2015,04,03,08,35,5.90
2015,04,03,08,36,5.90
2015,04,03,08,37,5.90
2015,04,03,08,38,5.90
2015,04,03,08,39,5.90
2015,04,03,08,40,5.90
2015,04,03,08,41,6.00
2015,04,03,08,42,6.00
2015,04,03,08,43,6.00
2015,04,03,08,44,6.00
2015,04,03,08,45,6.00
2015,04,03,08,46,6.00
2015,04,03,08,47,6.10
2015,04,03,08,48,6.10
2015,04,03,08,49,6.10
2015,04,03,08,50,6.10
2015,04,03,08,51,6.10
2015,04,03,08,52,6.10
2015,04,03,08,53,6.10
2015,04,03,08,54,6.10
2015,04,03,08,55,6.10
2015,04,03,08,56,6.10
2015,04,03,08,57,6.10
2015,04,03,08,58,6.10
2015,04,03,08,59,6.10
2015,04,03,09,00,6.10
2015,04,03,09,01,6.10
2015,04,03,09,02,6.10
2015,04,03,09,03,6.10
2015,04,03,09,04,6.10
2015,04,03,09,05,6.10
2015,04,03,09,06,6.10
2015,04,03,09,07,6.20
2015,04,03,09,08,6.20
2015,04,03,09,09,6.20
2015,04,03,09,10,6.20
2015,04,03,09,11,6.20
2015,04,03,09,12,6.20
2015,04,03,09,13,6.20
2015,04,03,09,14,6.20
2015,04,03,09,15,6.20
2015,04,03,09,16,6.20
2015,04,03,09,17,6.20
2015,04,03,09,18,6.20
2015,04,03,09,19,6.20
2015,04,03,09,20,6.20
2015,04,03,09,21,6.20
2015,04,03,09,22,6.20
2015,04,03,09,23,6.20
2015,04,03,09,24,6.20
2015,04,03,09,25,6.30
2015,04,03,09,26,6.30
2015,04,03,09,27,6.30
2015,04,03,09,28,6.30
2015,04,03,09,29,6.30
2015,04,03,09,30,6.30
2015,04,03,09,31,6.30
2015,04,03,09,32,6.40
2015,04,03,09,33,6.40
2015,04,03,09,34,6.40
2015,04,03,09,35,6.40
2015,04,03,09,36,6.40
2015,04,03,09,37,6.40
2015,04,03,09,38,6.40
2015,04,03,09,39,6.40
2015,04,03,09,40,6.40
2015,04,03,09,41,6.40
2015,04,03,09,42,6.40
2015,04,03,09,43,6.40
2015,04,03,09,44,6.50
2015,04,03,09,45,6.50
2015,04,03,09,46,6.50
2015,04,03,09,47,6.50
2015,04,03,09,48,6.50
2015,04,03,09,49,6.50
2015,04,03,09,50,6.60
2015,04,03,09,51,6.60
2015,04,03,09,52,6.60
2015,04,03,09,53,6.60
2015,04,03,09,54,6.60
2015,04,03,09,55,6.60
2015,04,03,09,56,6.60
2015,04,03,09,57,6.60
2015,04,03,09,58,6.70
2015,04,03,09,59,6.70
2015,04,03,10,00,6.70
2015,04,03,10,01,6.80
2015,04,03,10,02,6.80
2015,04,03,10,03,6.80
2015,04,03,10,04,6.90
2015,04,03,10,05,6.90
2015,04,03,10,06,7.00
2015,04,03,10,07,7.00
2015,04,03,10,08,7.00
2015,04,03,10,09,7.00
2015,04,03,10,10,7.00
2015,04,03,10,11,7.00
2015,04,03,10,12,7.00
2015,04,03,10,13,7.00
2015,04,03,10,14,7.00
2015,04,03,10,15,7.00
2015,04,03,10,16,7.10
2015,04,03,10,17,7.10
2015,04,03,10,18,7.10
2015,04,03,10,19,7.10
2015,04,03,10,20,7.10
2015,04,03,10,21,7.10
2015,04,03,10,22,7.10
2015,04,03,10,23,7.10
2015,04,03,10,24,7.10
2015,04,03,10,25,7.10
2015,04,03,10,26,7.10
2015,04,03,10,27,7.10
2015,04,03,10,28,7.10
2015,04,03,10,29,7.10
2015,04,03,10,30,7.10
2015,04,03,10,31,7.10
2015,04,03,10,32,7.10
2015,04,03,10,33,7.10
2015,04,03,10,34,7.10
2015,04,03,10,35,7.20
2015,04,03,10,36,7.20
2015,04,03,10,37,7.20
2015,04,03,10,38,7.20
2015,04,03,10,39,7.20
2015,04,03,10,40,7.20
2015,04,03,10,41,7.20
2015,04,03,10,42,7.20
2015,04,03,10,43,7.30
2015,04,03,10,44,7.30
2015,04,03,10,45,7.30
2015,04,03,10,46,7.30
2015,04,03,10,47,7.40
2015,04,03,10,48,7.40
2015,04,03,10,49,7.40
2015,04,03,10,50,7.40
2015,04,03,10,51,7.40
2015,04,03,10,52,7.40
2015,04,03,10,53,7.40
2015,04,03,10,54,7.40
2015,04,03,10,55,7.40
2015,04,03,10,56,7.40
2015,04,03,10,57,7.40
2015,04,03,10,58,7.40
2015,04,03,10,59,7.40
2015,04,03,11,00,7.40
2015,04,03,11,01,7.40
2015,04,03,11,02,7.40
2015,04,03,11,03,7.30
2015,04,03,11,04,7.40
2015,04,03,11,05,7.40
2015,04,03,11,06,7.40
2015,04,03,11,07,7.40
2015,04,03,11,08,7.40
2015,04,03,11,09,7.40
2015,04,03,11,10,7.40
2015,04,03,11,11,7.40
2015,04,03,11,12,7.40
2015,04,03,11,13,7.40
2015,04,03,11,14,7.40
2015,04,03,11,15,7.40
2015,04,03,11,16,7.40
2015,04,03,11,17,7.40
2015,04,03,11,18,7.40
2015,04,03,11,19,7.40
2015,04,03,11,20,7.40
2015,04,03,11,21,7.40
2015,04,03,11,22,7.40
2015,04,03,11,23,7.40
2015,04,03,11,24,7.40
2015,04,03,11,25,7.40
2015,04,03,11,26,7.40
2015,04,03,11,27,7.40
2015,04,03,11,28,7.40
2015,04,03,11,29,7.40
2015,04,03,11,30,7.40
2015,04,03,11,31,7.40
2015,04,03,11,32,7.40
2015,04,03,11,33,7.40
2015,04,03,11,34,7.40
2015,04,03,11,35,7.40
2015,04,03,11,36,7.40
2015,04,03,11,37,7.40
2015,04,03,11,38,7.40
2015,04,03,11,39,7.40
2015,04,03,11,40,7.40
2015,04,03,11,41,7.40
2015,04,03,11,42,7.40
2015,04,03,11,43,7.40
2015,04,03,11,44,7.40
2015,04,03,11,45,7.40
2015,04,03,11,46,7.40
2015,04,03,11,47,7.50
2015,04,03,11,48,7.50
2015,04,03,11,49,7.60
2015,04,03,11,50,7.60
2015,04,03,11,51,7.70
2015,04,03,11,52,7.70
2015,04,03,11,53,7.80
2015,04,03,11,54,7.80
2015,04,03,11,55,7.90
2015,04,03,11,56,7.90
2015,04,03,11,57,7.90
2015,04,03,11,58,7.90
2015,04,03,11,59,8.00
2015,04,03,12,00,8.00
2015,04,03,12,01,8.00
2015,04,03,12,02,8.00
2015,04,03,12,03,8.00
2015,04,03,12,04,8.00
2015,04,03,12,05,8.10
2015,04,03,12,06,8.10
2015,04,03,12,07,8.20
2015,04,03,12,08,8.20
2015,04,03,12,09,8.20
2015,04,03,12,10,8.30
2015,04,03,12,11,8.30
2015,04,03,12,12,8.30
2015,04,03,12,13,8.30
2015,04,03,12,14,8.30
2015,04,03,12,15,8.30
2015,04,03,12,16,8.30
2015,04,03,12,17,8.40
2015,04,03,12,18,8.40
2015,04,03,12,19,8.40
2015,04,03,12,20,8.40
2015,04,03,12,21,8.40
2015,04,03,12,22,8.50
2015,04,03,12,23,8.50
2015,04,03,12,24,8.50
2015,04,03,12,25,8.50
2015,04,03,12,26,8.50
2015,04,03,12,27,8.60
2015,04,03,12,28,8.60
2015,04,03,12,29,8.60
2015,04,03,12,30,8.60
2015,04,03,12,31,8.70
2015,04,03,12,32,8.70
2015,04,03,12,33,8.70
2015,04,03,12,34,8.80
2015,04,03,12,35,8.80
2015,04,03,12,36,8.80
2015,04,03,12,37,8.90
2015,04,03,12,38,9.00
2015,04,03,12,39,9.00
2015,04,03,12,40,9.10
2015,04,03,12,41,9.10
2015,04,03,12,42,9.10
2015,04,03,12,43,9.20
2015,04,03,12,44,9.20
2015,04,03,12,45,9.30
2015,04,03,12,46,9.30
2015,04,03,12,47,9.30
2015,04,03,12,48,9.30
2015,04,03,12,49,9.30
2015,04,03,12,50,9.30
2015,04,03,12,51,9.30
2015,04,03,12,52,9.30
2015,04,03,12,53,9.30
2015,04,03,12,54,9.30
2015,04,03,12,55,9.40
2015,04,03,12,56,9.40
2015,04,03,12,57,9.40
2015,04,03,12,58,9.40
2015,04,03,12,59,9.30
2015,04,03,13,00,9.30
2015,04,03,13,01,9.30
2015,04,03,13,02,9.30
2015,04,03,13,03,9.30
2015,04,03,13,04,9.20
2015,04,03,13,05,9.20
2015,04,03,13,06,9.20
2015,04,03,13,07,9.10
2015,04,03,13,08,9.10
2015,04,03,13,09,9.00
2015,04,03,13,10,9.00
2015,04,03,13,11,8.90
2015,04,03,13,12,8.90
2015,04,03,13,13,8.80
2015,04,03,13,14,8.80
2015,04,03,13,15,8.80
2015,04,03,13,16,8.80
2015,04,03,13,17,8.70
2015,04,03,13,18,8.60
2015,04,03,13,19,8.50
2015,04,03,13,20,8.40
2015,04,03,13,21,8.40
2015,04,03,13,22,8.40
2015,04,03,13,23,8.30
2015,04,03,13,24,8.40
2015,04,03,13,25,8.40
2015,04,03,13,26,8.30
2015,04,03,13,27,8.30
2015,04,03,13,28,8.30
2015,04,03,13,29,8.30
2015,04,03,13,30,8.20
2015,04,03,13,31,8.20
2015,04,03,13,32,8.20
2015,04,03,13,33,8.20
2015,04,03,13,34,8.10
2015,04,03,13,35,8.10
2015,04,03,13,36,8.10
2015,04,03,13,37,8.10
2015,04,03,13,38,8.10
2015,04,03,13,39,8.10
2015,04,03,13,40,8.10
2015,04,03,13,41,8.10
2015,04,03,13,42,8.20
2015,04,03,13,43,8.10
2015,04,03,13,44,8.20
2015,04,03,13,45,8.20
2015,04,03,13,46,8.20
2015,04,03,13,47,8.20
2015,04,03,13,48,8.20
2015,04,03,13,49,8.20
2015,04,03,13,50,8.20
2015,04,03,13,51,8.30
2015,04,03,13,52,8.30
2015,04,03,13,53,8.30
2015,04,03,13,54,8.30
2015,04,03,13,55,8.30
2015,04,03,13,56,8.20
2015,04,03,13,57,8.20
2015,04,03,13,58,8.20
2015,04,03,13,59,8.20
2015,04,03,14,00,8.20
2015,04,03,14,01,8.20
2015,04,03,14,02,8.10
2015,04,03,14,03,8.10
2015,04,03,14,04,8.10
2015,04,03,14,05,8.20
2015,04,03,14,06,8.20
2015,04,03,14,07,8.20
2015,04,03,14,08,8.20
2015,04,03,14,09,8.20
2015,04,03,14,10,8.20
2015,04,03,14,11,8.20
2015,04,03,14,12,8.20
2015,04,03,14,13,8.20
2015,04,03,14,14,8.20
2015,04,03,14,15,8.20
2015,04,03,14,16,8.10
2015,04,03,14,17,8.10
2015,04,03,14,18,8.10
2015,04,03,14,19,8.00
2015,04,03,14,20,8.00
2015,04,03,14,21,8.00
2015,04,03,14,22,8.00
2015,04,03,14,23,7.90
2015,04,03,14,24,7.90
2015,04,03,14,25,7.80
2015,04,03,14,26,7.80
2015,04,03,14,27,7.80
2015,04,03,14,28,7.80
2015,04,03,14,29,7.80
2015,04,03,14,30,7.80
2015,04,03,14,31,7.70
2015,04,03,14,32,7.70
2015,04,03,14,33,7.70
2015,04,03,14,34,7.70
2015,04,03,14,35,7.60
2015,04,03,14,36,7.60
2015,04,03,14,37,7.60
2015,04,03,14,38,7.60
2015,04,03,14,39,7.60
2015,04,03,14,40,7.60
2015,04,03,14,41,7.60
2015,04,03,14,42,7.60
2015,04,03,14,43,7.60
2015,04,03,14,44,7.60
2015,04,03,14,45,7.60
2015,04,03,14,46,7.60
2015,04,03,14,47,7.60
2015,04,03,14,48,7.60
2015,04,03,14,49,7.70
2015,04,03,14,50,7.70
2015,04,03,14,51,7.70
2015,04,03,14,52,7.80
2015,04,03,14,53,7.80
2015,04,03,14,54,7.80
2015,04,03,14,55,7.80
2015,04,03,14,56,7.80
2015,04,03,14,57,7.90
2015,04,03,14,58,7.90
2015,04,03,14,59,7.90
2015,04,03,15,00,7.90
2015,04,03,15,01,7.90
2015,04,03,15,02,7.90
2015,04,03,15,03,8.00
2015,04,03,15,04,8.00
2015,04,03,15,05,8.00
2015,04,03,15,06,8.10
2015,04,03,15,07,8.10
2015,04,03,15,08,8.20
2015,04,03,15,09,8.30
2015,04,03,15,10,8.30
2015,04,03,15,11,8.30
2015,04,03,15,12,8.40
2015,04,03,15,13,8.40
2015,04,03,15,14,8.50
2015,04,03,15,15,8.50
2015,04,03,15,16,8.60
2015,04,03,15,17,8.60
2015,04,03,15,18,8.70
2015,04,03,15,19,8.70
2015,04,03,15,20,8.70
2015,04,03,15,21,8.80
2015,04,03,15,22,8.80
2015,04,03,15,23,8.80
2015,04,03,15,24,8.80
2015,04,03,15,25,8.90
2015,04,03,15,26,8.90
2015,04,03,15,27,8.90
2015,04,03,15,28,8.90
2015,04,03,15,29,8.90
2015,04,03,15,30,9.00
2015,04,03,15,31,9.00
2015,04,03,15,32,9.00
2015,04,03,15,33,9.10
2015,04,03,15,34,9.10
2015,04,03,15,35,9.20
2015,04,03,15,36,9.20
2015,04,03,15,37,9.20
2015,04,03,15,38,9.30
2015,04,03,15,39,9.30
2015,04,03,15,40,9.40
2015,04,03,15,41,9.40
2015,04,03,15,42,9.50
2015,04,03,15,43,9.50
2015,04,03,15,44,9.60
2015,04,03,15,45,9.60
2015,04,03,15,46,9.60
2015,04,03,15,47,9.60
2015,04,03,15,48,9.60
2015,04,03,15,49,9.60
2015,04,03,15,50,9.60
2015,04,03,15,51,9.60
2015,04,03,15,52,9.60
2015,04,03,15,53,9.60
2015,04,03,15,54,9.50
2015,04,03,15,55,9.40
2015,04,03,15,56,9.40
2015,04,03,15,57,9.30
2015,04,03,15,58,9.20
2015,04,03,15,59,9.20
2015,04,03,16,00,9.10
2015,04,03,16,01,9.10
2015,04,03,16,02,9.10
2015,04,03,16,03,9.00
2015,04,03,16,04,9.00
2015,04,03,16,05,9.00
2015,04,03,16,06,8.90
2015,04,03,16,07,8.90
2015,04,03,16,08,8.80
2015,04,03,16,09,8.80
2015,04,03,16,10,8.80
2015,04,03,16,11,8.80
2015,04,03,16,12,8.80
2015,04,03,16,13,8.80
2015,04,03,16,14,8.70
2015,04,03,16,15,8.70
2015,04,03,16,16,8.70
2015,04,03,16,17,8.70
2015,04,03,16,18,8.70
2015,04,03,16,19,8.70
2015,04,03,16,20,8.70
2015,04,03,16,21,8.70
2015,04,03,16,22,8.70
2015,04,03,16,23,8.70
2015,04,03,16,24,8.70
2015,04,03,16,25,8.70
2015,04,03,16,26,8.70
2015,04,03,16,27,8.70
2015,04,03,16,28,8.80
2015,04,03,16,29,8.80
2015,04,03,16,30,8.80
2015,04,03,16,31,8.80
2015,04,03,16,32,8.90
2015,04,03,16,33,8.90
2015,04,03,16,34,8.90
2015,04,03,16,35,9.00
2015,04,03,16,36,9.00
2015,04,03,16,37,9.10
2015,04,03,16,38,9.10
2015,04,03,16,39,9.10
2015,04,03,16,40,9.20
2015,04,03,16,41,9.20
2015,04,03,16,42,9.30
2015,04,03,16,43,9.30
2015,04,03,16,44,9.30
2015,04,03,16,45,9.40
2015,04,03,16,46,9.40
2015,04,03,16,47,9.50
2015,04,03,16,48,9.50
2015,04,03,16,49,9.50
2015,04,03,16,50,9.50
2015,04,03,16,51,9.40
2015,04,03,16,52,9.40
2015,04,03,16,53,9.40
2015,04,03,16,54,9.30
2015,04,03,16,55,9.30
2015,04,03,16,56,9.30
2015,04,03,16,57,9.30
2015,04,03,16,58,9.30
2015,04,03,16,59,9.40
2015,04,03,17,00,9.40
2015,04,03,17,01,9.50
2015,04,03,17,02,9.50
2015,04,03,17,03,9.60
2015,04,03,17,04,9.60
2015,04,03,17,05,9.70
2015,04,03,17,06,9.80
2015,04,03,17,07,9.90
2015,04,03,17,08,9.90
2015,04,03,17,09,10.00
2015,04,03,17,10,10.10
2015,04,03,17,11,10.10
2015,04,03,17,12,10.20
2015,04,03,17,13,10.20
2015,04,03,17,14,10.20
2015,04,03,17,15,10.30
2015,04,03,17,16,10.30
2015,04,03,17,17,10.40
2015,04,03,17,18,10.40
2015,04,03,17,19,10.50
2015,04,03,17,20,10.40
2015,04,03,17,21,10.50
2015,04,03,17,22,10.40
2015,04,03,17,23,10.40
2015,04,03,17,24,10.30
2015,04,03,17,25,10.30
2015,04,03,17,26,10.30
2015,04,03,17,27,10.30
2015,04,03,17,28,10.30
2015,04,03,17,29,10.30
2015,04,03,17,30,10.30
2015,04,03,17,31,10.30
2015,04,03,17,32,10.30
2015,04,03,17,33,10.30
2015,04,03,17,34,10.30
2015,04,03,17,35,10.30
2015,04,03,17,36,10.30
2015,04,03,17,37,10.30
2015,04,03,17,38,10.30
2015,04,03,17,39,10.30
2015,04,03,17,40,10.30
2015,04,03,17,41,10.30
2015,04,03,17,42,10.30
2015,04,03,17,43,10.20
2015,04,03,17,44,10.20
2015,04,03,17,45,10.20
2015,04,03,17,46,10.20
2015,04,03,17,47,10.20
2015,04,03,17,48,10.20
2015,04,03,17,49,10.20
2015,04,03,17,50,10.10
2015,04,03,17,51,10.10
2015,04,03,17,52,10.10
2015,04,03,17,53,10.10
2015,04,03,17,54,10.10
2015,04,03,17,55,10.00
2015,04,03,17,56,10.00
2015,04,03,17,57,10.00
2015,04,03,17,58,9.90
2015,04,03,17,59,9.80
2015,04,03,18,00,9.80
2015,04,03,18,01,9.80
2015,04,03,18,02,9.80
2015,04,03,18,03,9.80
2015,04,03,18,04,9.80
2015,04,03,18,05,9.70
2015,04,03,18,06,9.70
2015,04,03,18,07,9.60
2015,04,03,18,08,9.60